owner,sensor,date,latitude,longitude,vertical_datum,sea_water_practical_salinity,qcFlag 
DISL,ioos:station:DISL:DISL:1,2014-02-01T00:00:00Z,30.2513,-88.0778,2.178,28.58,1111122 
DISL,ioos:station:DISL:DISL:1,2014-02-01T00:30:00Z,30.2513,-88.0778,2.237,28.75,1111122 
DISL,ioos:station:DISL:DISL:1,2014-02-01T01:00:00Z,30.2513,-88.0778,2.261,28.98,1111122 
DISL,ioos:station:DISL:DISL:1,2014-02-01T01:30:00Z,30.2513,-88.0778,2.282,29.16,1111122 
DISL,ioos:station:DISL:DISL:1,2014-02-01T02:00:00Z,30.2513,-88.0778,2.31,29.17,1111122 
DISL,ioos:station:DISL:DISL:1,2014-02-01T02:30:00Z,30.2513,-88.0778,2.327,28.77,1111122 
DISL,ioos:station:DISL:DISL:1,2014-02-01T03:00:00Z,30.2513,-88.0778,2.327,28.77,1111122 
DISL,ioos:station:DISL:DISL:1,2014-02-01T03:30:00Z,30.2513,-88.0778,2.327,28.77,1111122 
DISL,ioos:station:DISL:DISL:1,2014-02-01T04:00:00Z,30.2513,-88.0778,2.327,28.77,1111122 
DISL,ioos:station:DISL:DISL:1,2014-02-01T04:30:00Z,30.2513,-88.0778,2.327,28.77,1111122 
DISL,ioos:station:DISL:DISL:1,2014-02-01T05:00:00Z,30.2513,-88.0778,2.327,28.77,1111122 
DISL,ioos:station:DISL:DISL:1,2014-02-01T05:30:00Z,30.2513,-88.0778,2.327,28.77,1111122 
DISL,ioos:station:DISL:DISL:1,2014-02-01T06:00:00Z,30.2513,-88.0778,2.327,28.77,1111122 
DISL,ioos:station:DISL:DISL:1,2014-02-01T06:30:00Z,30.2513,-88.0778,2.327,28.77,1111122 
DISL,ioos:station:DISL:DISL:1,2014-02-01T07:00:00Z,30.2513,-88.0778,2.327,28.77,1111122 
DISL,ioos:station:DISL:DISL:1,2014-02-01T07:30:00Z,30.2513,-88.0778,2.327,28.77,1111122 
DISL,ioos:station:DISL:DISL:1,2014-02-01T08:00:00Z,30.2513,-88.0778,2.327,28.77,1111122 
DISL,ioos:station:DISL:DISL:1,2014-02-01T08:30:00Z,30.2513,-88.0778,2.327,28.77,1111122 
DISL,ioos:station:DISL:DISL:1,2014-02-01T09:00:00Z,30.2513,-88.0778,2.327,28.77,1111122 
DISL,ioos:station:DISL:DISL:1,2014-02-01T09:30:00Z,30.2513,-88.0778,2.327,28.77,1111122 
DISL,ioos:station:DISL:DISL:1,2014-02-01T10:00:00Z,30.2513,-88.0778,2.327,28.77,1111122 
DISL,ioos:station:DISL:DISL:1,2014-02-01T10:30:00Z,30.2513,-88.0778,2.327,28.77,1111122 
DISL,ioos:station:DISL:DISL:1,2014-02-01T11:00:00Z,30.2513,-88.0778,2.327,28.77,1111122 
DISL,ioos:station:DISL:DISL:1,2014-02-01T11:30:00Z,30.2513,-88.0778,2.327,28.77,1111122 
DISL,ioos:station:DISL:DISL:1,2014-02-01T12:00:00Z,30.2513,-88.0778,2.327,28.77,1111122 
DISL,ioos:station:DISL:DISL:1,2014-02-01T12:30:00Z,30.2513,-88.0778,2.327,28.77,1111122 
DISL,ioos:station:DISL:DISL:1,2014-02-01T13:00:00Z,30.2513,-88.0778,2.327,28.77,1111122 
DISL,ioos:station:DISL:DISL:1,2014-02-01T13:30:00Z,30.2513,-88.0778,2.327,28.77,1111122 
DISL,ioos:station:DISL:DISL:1,2014-02-01T14:00:00Z,30.2513,-88.0778,2.327,28.77,1111122 
DISL,ioos:station:DISL:DISL:1,2014-02-01T14:30:00Z,30.2513,-88.0778,2.327,28.77,1111122 
DISL,ioos:station:DISL:DISL:1,2014-02-01T15:00:00Z,30.2513,-88.0778,2.327,28.77,1111122 
DISL,ioos:station:DISL:DISL:1,2014-02-01T15:30:00Z,30.2513,-88.0778,2.327,28.77,1111122 
DISL,ioos:station:DISL:DISL:1,2014-02-01T16:00:00Z,30.2513,-88.0778,2.327,28.77,1111122 
DISL,ioos:station:DISL:DISL:1,2014-02-01T16:30:00Z,30.2513,-88.0778,2.327,28.77,1111122 
DISL,ioos:station:DISL:DISL:1,2014-02-01T17:00:00Z,30.2513,-88.0778,2.327,28.77,1111122 
DISL,ioos:station:DISL:DISL:1,2014-02-01T17:30:00Z,30.2513,-88.0778,2.327,28.77,1111122 
DISL,ioos:station:DISL:DISL:1,2014-02-01T18:00:00Z,30.2513,-88.0778,2.327,28.77,1111122 
DISL,ioos:station:DISL:DISL:1,2014-02-01T18:30:00Z,30.2513,-88.0778,2.327,28.77,1111122 
DISL,ioos:station:DISL:DISL:1,2014-02-01T19:00:00Z,30.2513,-88.0778,2.327,28.77,1111122 
DISL,ioos:station:DISL:DISL:1,2014-02-01T19:30:00Z,30.2513,-88.0778,2.327,28.77,1111122 
DISL,ioos:station:DISL:DISL:1,2014-02-01T20:00:00Z,30.2513,-88.0778,2.327,28.77,1111122 
DISL,ioos:station:DISL:DISL:1,2014-02-01T20:30:00Z,30.2513,-88.0778,2.327,28.77,1111122 
DISL,ioos:station:DISL:DISL:1,2014-02-01T21:00:00Z,30.2513,-88.0778,2.327,28.77,1111122 
DISL,ioos:station:DISL:DISL:1,2014-02-01T21:30:00Z,30.2513,-88.0778,2.327,28.77,1111122 
DISL,ioos:station:DISL:DISL:1,2014-02-01T22:00:00Z,30.2513,-88.0778,2.327,28.77,1111122 
DISL,ioos:station:DISL:DISL:1,2014-02-01T22:30:00Z,30.2513,-88.0778,2.327,28.77,1111122 
DISL,ioos:station:DISL:DISL:1,2014-02-01T23:00:00Z,30.2513,-88.0778,2.327,28.77,1111122 
DISL,ioos:station:DISL:DISL:1,2014-02-01T23:30:00Z,30.2513,-88.0778,2.327,28.77,1111122 
DISL,ioos:station:DISL:DISL:1,2014-02-02T00:00:00Z,30.2513,-88.0778,2.327,28.77,1111122 
DISL,ioos:station:DISL:DISL:1,2014-02-02T00:30:00Z,30.2513,-88.0778,2.327,28.77,1111122 
DISL,ioos:station:DISL:DISL:1,2014-02-02T01:00:00Z,30.2513,-88.0778,2.327,28.77,1111122 
DISL,ioos:station:DISL:DISL:1,2014-02-02T01:30:00Z,30.2513,-88.0778,2.327,28.77,1111122 
DISL,ioos:station:DISL:DISL:1,2014-02-02T02:00:00Z,30.2513,-88.0778,2.327,28.77,1111122 
DISL,ioos:station:DISL:DISL:1,2014-02-02T02:30:00Z,30.2513,-88.0778,2.327,28.77,1111122 
DISL,ioos:station:DISL:DISL:1,2014-02-02T03:00:00Z,30.2513,-88.0778,2.327,28.77,1111122 
DISL,ioos:station:DISL:DISL:1,2014-02-02T03:30:00Z,30.2513,-88.0778,2.327,28.77,1111122 
DISL,ioos:station:DISL:DISL:1,2014-02-02T04:00:00Z,30.2513,-88.0778,2.327,28.77,1111122 
DISL,ioos:station:DISL:DISL:1,2014-02-02T04:30:00Z,30.2513,-88.0778,2.327,28.77,1111122 
DISL,ioos:station:DISL:DISL:1,2014-02-02T05:00:00Z,30.2513,-88.0778,2.327,28.77,1111122 
DISL,ioos:station:DISL:DISL:1,2014-02-02T05:30:00Z,30.2513,-88.0778,2.327,28.77,1111122 
DISL,ioos:station:DISL:DISL:1,2014-02-02T06:00:00Z,30.2513,-88.0778,2.327,28.77,1111122 
DISL,ioos:station:DISL:DISL:1,2014-02-02T06:30:00Z,30.2513,-88.0778,2.327,28.77,1111122 
DISL,ioos:station:DISL:DISL:1,2014-02-02T07:00:00Z,30.2513,-88.0778,2.327,28.77,1111122 
DISL,ioos:station:DISL:DISL:1,2014-02-02T07:30:00Z,30.2513,-88.0778,2.327,28.77,1111122 
DISL,ioos:station:DISL:DISL:1,2014-02-02T08:00:00Z,30.2513,-88.0778,2.327,28.77,1111122 
DISL,ioos:station:DISL:DISL:1,2014-02-02T08:30:00Z,30.2513,-88.0778,2.327,28.77,1111122 
DISL,ioos:station:DISL:DISL:1,2014-02-02T09:00:00Z,30.2513,-88.0778,2.327,28.77,1111122 
DISL,ioos:station:DISL:DISL:1,2014-02-02T09:30:00Z,30.2513,-88.0778,2.327,28.77,1111122 
DISL,ioos:station:DISL:DISL:1,2014-02-02T10:00:00Z,30.2513,-88.0778,2.327,28.77,1111122 
DISL,ioos:station:DISL:DISL:1,2014-02-02T10:30:00Z,30.2513,-88.0778,2.327,28.77,1111122 
DISL,ioos:station:DISL:DISL:1,2014-02-02T11:00:00Z,30.2513,-88.0778,2.327,28.77,1111122 
DISL,ioos:station:DISL:DISL:1,2014-02-02T11:30:00Z,30.2513,-88.0778,2.327,28.77,1111122 
DISL,ioos:station:DISL:DISL:1,2014-02-02T12:00:00Z,30.2513,-88.0778,2.327,28.77,1111122 
DISL,ioos:station:DISL:DISL:1,2014-02-02T12:30:00Z,30.2513,-88.0778,2.327,28.77,1111122 
DISL,ioos:station:DISL:DISL:1,2014-02-02T13:00:00Z,30.2513,-88.0778,2.327,28.77,1111122 
DISL,ioos:station:DISL:DISL:1,2014-02-02T13:30:00Z,30.2513,-88.0778,2.327,28.77,1111122 
DISL,ioos:station:DISL:DISL:1,2014-02-02T14:00:00Z,30.2513,-88.0778,2.327,28.77,1111122 
DISL,ioos:station:DISL:DISL:1,2014-02-02T14:30:00Z,30.2513,-88.0778,2.327,28.77,1111122 
DISL,ioos:station:DISL:DISL:1,2014-02-02T15:00:00Z,30.2513,-88.0778,2.327,28.77,1111122 
DISL,ioos:station:DISL:DISL:1,2014-02-02T15:30:00Z,30.2513,-88.0778,2.327,28.77,1111122 
DISL,ioos:station:DISL:DISL:1,2014-02-02T16:00:00Z,30.2513,-88.0778,2.327,28.77,1111122 
DISL,ioos:station:DISL:DISL:1,2014-02-02T16:30:00Z,30.2513,-88.0778,2.327,28.77,1111122 
DISL,ioos:station:DISL:DISL:1,2014-02-02T17:00:00Z,30.2513,-88.0778,2.327,28.77,1111122 
DISL,ioos:station:DISL:DISL:1,2014-02-02T17:30:00Z,30.2513,-88.0778,2.327,28.77,1111122 
DISL,ioos:station:DISL:DISL:1,2014-02-02T18:00:00Z,30.2513,-88.0778,2.327,28.77,1111122 
DISL,ioos:station:DISL:DISL:1,2014-02-02T18:30:00Z,30.2513,-88.0778,2.327,28.77,1111122 
DISL,ioos:station:DISL:DISL:1,2014-02-02T19:00:00Z,30.2513,-88.0778,2.327,28.77,1111122 
DISL,ioos:station:DISL:DISL:1,2014-02-02T19:30:00Z,30.2513,-88.0778,2.327,28.77,1111122 
DISL,ioos:station:DISL:DISL:1,2014-02-02T20:00:00Z,30.2513,-88.0778,2.327,28.77,1111122 
DISL,ioos:station:DISL:DISL:1,2014-02-02T20:30:00Z,30.2513,-88.0778,2.327,28.77,1111122 
DISL,ioos:station:DISL:DISL:1,2014-02-02T21:00:00Z,30.2513,-88.0778,2.327,28.77,1111122 
DISL,ioos:station:DISL:DISL:1,2014-02-02T21:30:00Z,30.2513,-88.0778,2.327,28.77,1111122 
DISL,ioos:station:DISL:DISL:1,2014-02-02T22:00:00Z,30.2513,-88.0778,2.327,28.77,1111122 
DISL,ioos:station:DISL:DISL:1,2014-02-02T22:30:00Z,30.2513,-88.0778,2.327,28.77,1111122 
DISL,ioos:station:DISL:DISL:1,2014-02-02T23:00:00Z,30.2513,-88.0778,2.327,28.77,1111122 
DISL,ioos:station:DISL:DISL:1,2014-02-02T23:30:00Z,30.2513,-88.0778,2.327,28.77,1111122 
DISL,ioos:station:DISL:DISL:1,2014-02-03T00:00:00Z,30.2513,-88.0778,2.327,28.77,1111122 
DISL,ioos:station:DISL:DISL:1,2014-02-03T00:30:00Z,30.2513,-88.0778,2.327,28.77,1111122 
DISL,ioos:station:DISL:DISL:1,2014-02-03T01:00:00Z,30.2513,-88.0778,2.327,28.77,1111122 
DISL,ioos:station:DISL:DISL:1,2014-02-03T01:30:00Z,30.2513,-88.0778,2.327,28.77,1111122 
DISL,ioos:station:DISL:DISL:1,2014-02-03T02:00:00Z,30.2513,-88.0778,2.327,28.77,1111122 
DISL,ioos:station:DISL:DISL:1,2014-02-03T02:30:00Z,30.2513,-88.0778,2.327,28.77,1111122 
DISL,ioos:station:DISL:DISL:1,2014-02-03T03:00:00Z,30.2513,-88.0778,2.327,28.77,1111122 
DISL,ioos:station:DISL:DISL:1,2014-02-03T03:30:00Z,30.2513,-88.0778,2.327,28.77,1111122 
DISL,ioos:station:DISL:DISL:1,2014-02-03T04:00:00Z,30.2513,-88.0778,2.327,28.77,1111122 
DISL,ioos:station:DISL:DISL:1,2014-02-03T04:30:00Z,30.2513,-88.0778,2.327,28.77,1111122 
DISL,ioos:station:DISL:DISL:1,2014-02-03T05:00:00Z,30.2513,-88.0778,2.327,28.77,1111122 
DISL,ioos:station:DISL:DISL:1,2014-02-03T05:30:00Z,30.2513,-88.0778,2.327,28.77,1111122 
DISL,ioos:station:DISL:DISL:1,2014-02-03T06:00:00Z,30.2513,-88.0778,2.327,28.77,1111122 
DISL,ioos:station:DISL:DISL:1,2014-02-03T06:30:00Z,30.2513,-88.0778,2.327,28.77,1111122 
DISL,ioos:station:DISL:DISL:1,2014-02-03T07:00:00Z,30.2513,-88.0778,2.327,28.77,1111122 
DISL,ioos:station:DISL:DISL:1,2014-02-03T07:30:00Z,30.2513,-88.0778,2.327,28.77,1111122 
DISL,ioos:station:DISL:DISL:1,2014-02-03T08:00:00Z,30.2513,-88.0778,2.327,28.77,1111122 
DISL,ioos:station:DISL:DISL:1,2014-02-03T08:30:00Z,30.2513,-88.0778,2.327,28.77,1111122 
DISL,ioos:station:DISL:DISL:1,2014-02-03T09:00:00Z,30.2513,-88.0778,2.327,28.77,1111122 
DISL,ioos:station:DISL:DISL:1,2014-02-03T09:30:00Z,30.2513,-88.0778,2.327,28.77,1111122 
DISL,ioos:station:DISL:DISL:1,2014-02-03T10:00:00Z,30.2513,-88.0778,2.327,28.77,1111122 
DISL,ioos:station:DISL:DISL:1,2014-02-03T10:30:00Z,30.2513,-88.0778,2.327,28.77,1111122 
DISL,ioos:station:DISL:DISL:1,2014-02-03T11:00:00Z,30.2513,-88.0778,2.327,28.77,1111122 
DISL,ioos:station:DISL:DISL:1,2014-02-03T11:30:00Z,30.2513,-88.0778,2.327,28.77,1111122 
DISL,ioos:station:DISL:DISL:1,2014-02-03T12:00:00Z,30.2513,-88.0778,2.327,28.77,1111122 
DISL,ioos:station:DISL:DISL:1,2014-02-03T12:30:00Z,30.2513,-88.0778,2.327,28.77,1111122 
DISL,ioos:station:DISL:DISL:1,2014-02-03T13:00:00Z,30.2513,-88.0778,2.327,28.77,1111122 
DISL,ioos:station:DISL:DISL:1,2014-02-03T13:30:00Z,30.2513,-88.0778,2.327,28.77,1111122 
DISL,ioos:station:DISL:DISL:1,2014-02-03T14:00:00Z,30.2513,-88.0778,2.327,28.77,1111122 
DISL,ioos:station:DISL:DISL:1,2014-02-03T14:30:00Z,30.2513,-88.0778,2.327,28.77,1111122 
DISL,ioos:station:DISL:DISL:1,2014-02-03T15:00:00Z,30.2513,-88.0778,2.327,28.77,1111122 
DISL,ioos:station:DISL:DISL:1,2014-02-03T15:30:00Z,30.2513,-88.0778,2.327,28.77,1111122 
DISL,ioos:station:DISL:DISL:1,2014-02-03T16:00:00Z,30.2513,-88.0778,1.82,20.14,1111122 
DISL,ioos:station:DISL:DISL:1,2014-02-03T16:30:00Z,30.2513,-88.0778,1.868,19.79,1111122 
DISL,ioos:station:DISL:DISL:1,2014-02-03T17:00:00Z,30.2513,-88.0778,1.817,19.78,1111122 
DISL,ioos:station:DISL:DISL:1,2014-02-03T17:30:00Z,30.2513,-88.0778,1.887,19.38,1111122 
DISL,ioos:station:DISL:DISL:1,2014-02-03T18:00:00Z,30.2513,-88.0778,1.822,18.91,1111122 
DISL,ioos:station:DISL:DISL:1,2014-02-03T18:30:00Z,30.2513,-88.0778,1.81,18.7,1111122 
DISL,ioos:station:DISL:DISL:1,2014-02-03T19:00:00Z,30.2513,-88.0778,1.826,20.63,1111122 
DISL,ioos:station:DISL:DISL:1,2014-02-03T19:30:00Z,30.2513,-88.0778,1.87,20.25,1111122 
DISL,ioos:station:DISL:DISL:1,2014-02-03T20:00:00Z,30.2513,-88.0778,1.844,20.39,1111122 
DISL,ioos:station:DISL:DISL:1,2014-02-03T20:30:00Z,30.2513,-88.0778,1.841,19.92,1111122 
DISL,ioos:station:DISL:DISL:1,2014-02-03T21:00:00Z,30.2513,-88.0778,1.846,19.94,1111122 
DISL,ioos:station:DISL:DISL:1,2014-02-03T21:30:00Z,30.2513,-88.0778,1.838,20.01,1111122 
DISL,ioos:station:DISL:DISL:1,2014-02-03T22:00:00Z,30.2513,-88.0778,1.821,20.27,1111122 
DISL,ioos:station:DISL:DISL:1,2014-02-03T22:30:00Z,30.2513,-88.0778,1.774,20.95,1111122 
DISL,ioos:station:DISL:DISL:1,2014-02-03T23:00:00Z,30.2513,-88.0778,1.826,21.09,1111122 
DISL,ioos:station:DISL:DISL:1,2014-02-03T23:30:00Z,30.2513,-88.0778,1.757,21.4,1111122 
DISL,ioos:station:DISL:DISL:1,2014-02-04T00:00:00Z,30.2513,-88.0778,1.829,21.44,1111122 
DISL,ioos:station:DISL:DISL:1,2014-02-04T00:30:00Z,30.2513,-88.0778,1.787,21.21,1111122 
DISL,ioos:station:DISL:DISL:1,2014-02-04T01:00:00Z,30.2513,-88.0778,1.777,20.16,1111122 
DISL,ioos:station:DISL:DISL:1,2014-02-04T01:30:00Z,30.2513,-88.0778,1.79,20.01,1111122 
DISL,ioos:station:DISL:DISL:1,2014-02-04T02:00:00Z,30.2513,-88.0778,1.8,19.13,1111122 
DISL,ioos:station:DISL:DISL:1,2014-02-04T02:30:00Z,30.2513,-88.0778,1.777,19.07,1111122 
DISL,ioos:station:DISL:DISL:1,2014-02-04T03:00:00Z,30.2513,-88.0778,1.812,18.82,1111122 
DISL,ioos:station:DISL:DISL:1,2014-02-04T03:30:00Z,30.2513,-88.0778,1.79,18.83,1111122 
DISL,ioos:station:DISL:DISL:1,2014-02-04T04:00:00Z,30.2513,-88.0778,1.819,18.98,1111122 
DISL,ioos:station:DISL:DISL:1,2014-02-04T04:30:00Z,30.2513,-88.0778,1.872,19.79,1111122 
DISL,ioos:station:DISL:DISL:1,2014-02-04T05:00:00Z,30.2513,-88.0778,1.828,20.42,1111122 
DISL,ioos:station:DISL:DISL:1,2014-02-04T05:30:00Z,30.2513,-88.0778,1.841,20.9,1111122 
DISL,ioos:station:DISL:DISL:1,2014-02-04T06:00:00Z,30.2513,-88.0778,1.904,20.47,1111122 
DISL,ioos:station:DISL:DISL:1,2014-02-04T06:30:00Z,30.2513,-88.0778,1.833,20.43,1111122 
DISL,ioos:station:DISL:DISL:1,2014-02-04T07:00:00Z,30.2513,-88.0778,1.842,19.81,1111122 
DISL,ioos:station:DISL:DISL:1,2014-02-04T07:30:00Z,30.2513,-88.0778,1.851,19.47,1111122 
DISL,ioos:station:DISL:DISL:1,2014-02-04T08:00:00Z,30.2513,-88.0778,1.845,20.0,1111122 
DISL,ioos:station:DISL:DISL:1,2014-02-04T08:30:00Z,30.2513,-88.0778,1.857,21.7,1111122 
DISL,ioos:station:DISL:DISL:1,2014-02-04T09:00:00Z,30.2513,-88.0778,1.872,25.37,1111122 
DISL,ioos:station:DISL:DISL:1,2014-02-04T09:30:00Z,30.2513,-88.0778,1.877,26.19,1111122 
DISL,ioos:station:DISL:DISL:1,2014-02-04T10:00:00Z,30.2513,-88.0778,1.867,25.33,1111122 
DISL,ioos:station:DISL:DISL:1,2014-02-04T10:30:00Z,30.2513,-88.0778,1.912,21.28,1111122 
DISL,ioos:station:DISL:DISL:1,2014-02-04T11:00:00Z,30.2513,-88.0778,1.878,22.5,1111122 
DISL,ioos:station:DISL:DISL:1,2014-02-04T11:30:00Z,30.2513,-88.0778,1.903,20.29,1111122 
DISL,ioos:station:DISL:DISL:1,2014-02-04T12:00:00Z,30.2513,-88.0778,1.921,20.62,1111122 
DISL,ioos:station:DISL:DISL:1,2014-02-04T12:30:00Z,30.2513,-88.0778,1.926,19.16,1111122 
DISL,ioos:station:DISL:DISL:1,2014-02-04T13:00:00Z,30.2513,-88.0778,1.925,19.65,1111122 
DISL,ioos:station:DISL:DISL:1,2014-02-04T13:30:00Z,30.2513,-88.0778,1.939,25.24,1111122 
DISL,ioos:station:DISL:DISL:1,2014-02-04T14:00:00Z,30.2513,-88.0778,1.938,29.05,1111122 
DISL,ioos:station:DISL:DISL:1,2014-02-04T14:30:00Z,30.2513,-88.0778,1.951,28.99,1111122 
DISL,ioos:station:DISL:DISL:1,2014-02-04T15:00:00Z,30.2513,-88.0778,1.964,29.82,1111122 
DISL,ioos:station:DISL:DISL:1,2014-02-04T15:30:00Z,30.2513,-88.0778,1.992,30.21,1111122 
DISL,ioos:station:DISL:DISL:1,2014-02-04T16:00:00Z,30.2513,-88.0778,1.993,30.87,1111122 
DISL,ioos:station:DISL:DISL:1,2014-02-04T16:30:00Z,30.2513,-88.0778,2.012,31.55,1111122 
DISL,ioos:station:DISL:DISL:1,2014-02-04T17:00:00Z,30.2513,-88.0778,2.029,31.55,1111122 
DISL,ioos:station:DISL:DISL:1,2014-02-04T17:30:00Z,30.2513,-88.0778,2.01,29.96,1111122 
DISL,ioos:station:DISL:DISL:1,2014-02-04T18:00:00Z,30.2513,-88.0778,2.048,26.66,1111122 
DISL,ioos:station:DISL:DISL:1,2014-02-04T18:30:00Z,30.2513,-88.0778,2.052,27.95,1111122 
DISL,ioos:station:DISL:DISL:1,2014-02-04T19:00:00Z,30.2513,-88.0778,2.061,25.06,1111122 
DISL,ioos:station:DISL:DISL:1,2014-02-04T19:30:00Z,30.2513,-88.0778,2.058,25.19,1111122 
DISL,ioos:station:DISL:DISL:1,2014-02-04T20:00:00Z,30.2513,-88.0778,2.062,22.54,1111122 
DISL,ioos:station:DISL:DISL:1,2014-02-04T20:30:00Z,30.2513,-88.0778,2.075,21.3,1111122 
DISL,ioos:station:DISL:DISL:1,2014-02-04T21:00:00Z,30.2513,-88.0778,2.074,17.52,1111122 
DISL,ioos:station:DISL:DISL:1,2014-02-04T21:30:00Z,30.2513,-88.0778,2.059,31.52,1111122 
DISL,ioos:station:DISL:DISL:1,2014-02-04T22:00:00Z,30.2513,-88.0778,2.06,18.36,1111122 
DISL,ioos:station:DISL:DISL:1,2014-02-04T22:30:00Z,30.2513,-88.0778,2.054,22.13,1111122 
DISL,ioos:station:DISL:DISL:1,2014-02-04T23:00:00Z,30.2513,-88.0778,2.035,20.61,1111122 
DISL,ioos:station:DISL:DISL:1,2014-02-04T23:30:00Z,30.2513,-88.0778,2.007,20.34,1111122 
DISL,ioos:station:DISL:DISL:1,2014-02-05T00:00:00Z,30.2513,-88.0778,1.995,20.87,1111122 
DISL,ioos:station:DISL:DISL:1,2014-02-05T00:30:00Z,30.2513,-88.0778,1.968,20.76,1111122 
DISL,ioos:station:DISL:DISL:1,2014-02-05T01:00:00Z,30.2513,-88.0778,1.956,18.52,1111122 
DISL,ioos:station:DISL:DISL:1,2014-02-05T01:30:00Z,30.2513,-88.0778,1.941,17.87,1111122 
DISL,ioos:station:DISL:DISL:1,2014-02-05T02:00:00Z,30.2513,-88.0778,1.931,16.99,1111122 
DISL,ioos:station:DISL:DISL:1,2014-02-05T02:30:00Z,30.2513,-88.0778,1.923,16.57,1111122 
DISL,ioos:station:DISL:DISL:1,2014-02-05T03:00:00Z,30.2513,-88.0778,1.905,16.57,1111122 
DISL,ioos:station:DISL:DISL:1,2014-02-05T03:30:00Z,30.2513,-88.0778,1.895,16.43,1111122 
DISL,ioos:station:DISL:DISL:1,2014-02-05T04:00:00Z,30.2513,-88.0778,1.899,16.57,1111122 
DISL,ioos:station:DISL:DISL:1,2014-02-05T04:30:00Z,30.2513,-88.0778,1.885,16.93,1111122 
DISL,ioos:station:DISL:DISL:1,2014-02-05T05:00:00Z,30.2513,-88.0778,1.879,17.02,1111122 
DISL,ioos:station:DISL:DISL:1,2014-02-05T05:30:00Z,30.2513,-88.0778,1.874,17.16,1111122 
DISL,ioos:station:DISL:DISL:1,2014-02-05T06:00:00Z,30.2513,-88.0778,1.878,16.88,1111122 
DISL,ioos:station:DISL:DISL:1,2014-02-05T06:30:00Z,30.2513,-88.0778,1.881,16.82,1111122 
DISL,ioos:station:DISL:DISL:1,2014-02-05T07:00:00Z,30.2513,-88.0778,1.84,17.03,1111122 
DISL,ioos:station:DISL:DISL:1,2014-02-05T07:30:00Z,30.2513,-88.0778,1.863,18.09,1111122 
DISL,ioos:station:DISL:DISL:1,2014-02-05T08:00:00Z,30.2513,-88.0778,1.865,19.07,1111122 
DISL,ioos:station:DISL:DISL:1,2014-02-05T08:30:00Z,30.2513,-88.0778,1.873,20.13,1111122 
DISL,ioos:station:DISL:DISL:1,2014-02-05T09:00:00Z,30.2513,-88.0778,1.88,17.15,1111122 
DISL,ioos:station:DISL:DISL:1,2014-02-05T09:30:00Z,30.2513,-88.0778,1.872,18.21,1111122 
DISL,ioos:station:DISL:DISL:1,2014-02-05T10:00:00Z,30.2513,-88.0778,1.842,16.87,1111122 
DISL,ioos:station:DISL:DISL:1,2014-02-05T10:30:00Z,30.2513,-88.0778,1.86,16.72,1111122 
DISL,ioos:station:DISL:DISL:1,2014-02-05T11:00:00Z,30.2513,-88.0778,1.841,16.79,1111122 
DISL,ioos:station:DISL:DISL:1,2014-02-05T11:30:00Z,30.2513,-88.0778,1.863,16.8,1111122 
DISL,ioos:station:DISL:DISL:1,2014-02-05T12:00:00Z,30.2513,-88.0778,1.819,17.37,1111122 
DISL,ioos:station:DISL:DISL:1,2014-02-05T12:30:00Z,30.2513,-88.0778,1.831,18.18,1111122 
DISL,ioos:station:DISL:DISL:1,2014-02-05T13:00:00Z,30.2513,-88.0778,1.836,17.68,1111122 
DISL,ioos:station:DISL:DISL:1,2014-02-05T13:30:00Z,30.2513,-88.0778,1.821,18.37,1111122 
DISL,ioos:station:DISL:DISL:1,2014-02-05T14:00:00Z,30.2513,-88.0778,1.843,16.84,1111122 
DISL,ioos:station:DISL:DISL:1,2014-02-05T14:30:00Z,30.2513,-88.0778,1.831,16.69,1111122 
DISL,ioos:station:DISL:DISL:1,2014-02-05T15:00:00Z,30.2513,-88.0778,1.86,16.57,1111122 
DISL,ioos:station:DISL:DISL:1,2014-02-05T15:30:00Z,30.2513,-88.0778,1.862,15.4,1111122 
DISL,ioos:station:DISL:DISL:1,2014-02-05T16:00:00Z,30.2513,-88.0778,1.866,15.44,1111122 
DISL,ioos:station:DISL:DISL:1,2014-02-05T16:30:00Z,30.2513,-88.0778,1.885,18.09,1111122 
DISL,ioos:station:DISL:DISL:1,2014-02-05T17:00:00Z,30.2513,-88.0778,1.89,18.08,1111122 
DISL,ioos:station:DISL:DISL:1,2014-02-05T17:30:00Z,30.2513,-88.0778,1.911,19.29,1111122 
DISL,ioos:station:DISL:DISL:1,2014-02-05T18:00:00Z,30.2513,-88.0778,1.945,19.98,1111122 
DISL,ioos:station:DISL:DISL:1,2014-02-05T18:30:00Z,30.2513,-88.0778,1.947,16.44,1111122 
DISL,ioos:station:DISL:DISL:1,2014-02-05T19:00:00Z,30.2513,-88.0778,1.895,16.24,1111122 
DISL,ioos:station:DISL:DISL:1,2014-02-05T19:30:00Z,30.2513,-88.0778,1.927,19.09,1111122 
DISL,ioos:station:DISL:DISL:1,2014-02-05T20:00:00Z,30.2513,-88.0778,1.982,18.94,1111122 
DISL,ioos:station:DISL:DISL:1,2014-02-05T20:30:00Z,30.2513,-88.0778,1.982,18.94,1111122 
DISL,ioos:station:DISL:DISL:1,2014-02-05T21:00:00Z,30.2513,-88.0778,1.945,20.66,1111122 
DISL,ioos:station:DISL:DISL:1,2014-02-05T21:30:00Z,30.2513,-88.0778,1.885,20.99,1111122 
DISL,ioos:station:DISL:DISL:1,2014-02-05T22:00:00Z,30.2513,-88.0778,1.964,20.64,1111122 
DISL,ioos:station:DISL:DISL:1,2014-02-05T22:30:00Z,30.2513,-88.0778,1.985,21.39,1111122 
DISL,ioos:station:DISL:DISL:1,2014-02-05T23:00:00Z,30.2513,-88.0778,1.962,21.44,1111122 
DISL,ioos:station:DISL:DISL:1,2014-02-05T23:30:00Z,30.2513,-88.0778,2.105,21.79,1111122 
DISL,ioos:station:DISL:DISL:1,2014-02-06T00:00:00Z,30.2513,-88.0778,1.924,21.93,1111122 
DISL,ioos:station:DISL:DISL:1,2014-02-06T00:30:00Z,30.2513,-88.0778,1.935,21.97,1111122 
DISL,ioos:station:DISL:DISL:1,2014-02-06T01:00:00Z,30.2513,-88.0778,1.933,22.05,1111122 
DISL,ioos:station:DISL:DISL:1,2014-02-06T01:30:00Z,30.2513,-88.0778,1.922,17.26,1111122 
DISL,ioos:station:DISL:DISL:1,2014-02-06T02:00:00Z,30.2513,-88.0778,1.857,14.96,1111122 
DISL,ioos:station:DISL:DISL:1,2014-02-06T02:30:00Z,30.2513,-88.0778,1.915,14.59,1111122 
DISL,ioos:station:DISL:DISL:1,2014-02-06T03:00:00Z,30.2513,-88.0778,1.797,14.24,1111122 
DISL,ioos:station:DISL:DISL:1,2014-02-06T03:30:00Z,30.2513,-88.0778,1.818,14.08,1111122 
DISL,ioos:station:DISL:DISL:1,2014-02-06T04:00:00Z,30.2513,-88.0778,1.715,13.89,1111122 
DISL,ioos:station:DISL:DISL:1,2014-02-06T04:30:00Z,30.2513,-88.0778,1.761,13.46,1111122 
DISL,ioos:station:DISL:DISL:1,2014-02-06T05:00:00Z,30.2513,-88.0778,1.733,13.31,1111122 
DISL,ioos:station:DISL:DISL:1,2014-02-06T05:30:00Z,30.2513,-88.0778,1.76,13.23,1111122 
DISL,ioos:station:DISL:DISL:1,2014-02-06T06:00:00Z,30.2513,-88.0778,1.76,13.22,1111122 
DISL,ioos:station:DISL:DISL:1,2014-02-06T06:30:00Z,30.2513,-88.0778,1.696,13.92,1111122 
DISL,ioos:station:DISL:DISL:1,2014-02-06T07:00:00Z,30.2513,-88.0778,1.68,14.75,1111122 
DISL,ioos:station:DISL:DISL:1,2014-02-06T07:30:00Z,30.2513,-88.0778,1.699,14.26,1111122 
DISL,ioos:station:DISL:DISL:1,2014-02-06T08:00:00Z,30.2513,-88.0778,1.693,14.53,1111122 
DISL,ioos:station:DISL:DISL:1,2014-02-06T08:30:00Z,30.2513,-88.0778,1.692,14.36,1111122 
DISL,ioos:station:DISL:DISL:1,2014-02-06T09:00:00Z,30.2513,-88.0778,1.666,14.52,1111122 
DISL,ioos:station:DISL:DISL:1,2014-02-06T09:30:00Z,30.2513,-88.0778,1.709,14.24,1111122 
DISL,ioos:station:DISL:DISL:1,2014-02-06T10:00:00Z,30.2513,-88.0778,1.751,13.99,1111122 
DISL,ioos:station:DISL:DISL:1,2014-02-06T10:30:00Z,30.2513,-88.0778,1.653,13.5,1111122 
DISL,ioos:station:DISL:DISL:1,2014-02-06T11:00:00Z,30.2513,-88.0778,1.676,13.36,1111122 
DISL,ioos:station:DISL:DISL:1,2014-02-06T11:30:00Z,30.2513,-88.0778,1.684,13.34,1111122 
DISL,ioos:station:DISL:DISL:1,2014-02-06T12:00:00Z,30.2513,-88.0778,1.69,13.28,1111122 
DISL,ioos:station:DISL:DISL:1,2014-02-06T12:30:00Z,30.2513,-88.0778,1.668,13.27,1111122 
DISL,ioos:station:DISL:DISL:1,2014-02-06T13:00:00Z,30.2513,-88.0778,1.713,14.1,1111122 
DISL,ioos:station:DISL:DISL:1,2014-02-06T13:30:00Z,30.2513,-88.0778,1.79,13.98,1111122 
DISL,ioos:station:DISL:DISL:1,2014-02-06T14:00:00Z,30.2513,-88.0778,1.637,13.98,1111122 